Regional Weather Roundup
Issued by NWS Upton, NY

Current Version | Previous Version | Text Only | Print | Product List | Glossary Off
Versions: 1 2 3 4 5 6 7 8 9 10 11 12 13 14 15 16 17 18 19 20 21 22 23 24 25 26 27 28 29 30 31 32 33 34 35 36 37 38 39 40 41 42 43 44 45 46 47 48 49 50
000 ASUS41 KOKX 230713 RWROKX Regional Weather Roundup National Weather Service New York NY 300 AM EDT THU MAY 23 2019 Note: "FAIR" indicates few or no clouds below 12,000 feet with no significant weather and/or obstructions to visibility. NYZ071-072-176-178-NJZ106-104-230800- New York City Metro Area CITY SKY/WX TMP DP RH WIND PRES REMARKS Central Park FAIR 64 44 48 SW3 30.20F Bronx Lehman C N/A 64 45 48 SW7 N/A LaGuardia Arpt MOCLDY 66 42 41 SW8 30.17F Queens College N/A 63 43 48 S6 N/A Kennedy Intl CLOUDY 59 50 72 SW7 30.19F Breezy Point N/A 57 N/A N/A SW3 N/A Brooklyn Coll N/A 63 48 59 S6 N/A Staten Island N/A 61 46 59 S5 N/A Newark/Liberty MOCLDY 63 45 51 SW9 30.17F Teterboro FAIR 63 45 51 S5 30.16F $$ NYZ177-179-078>081-230800- Long Island New York CITY SKY/WX TMP DP RH WIND PRES REMARKS Jones Beach N/A 57 N/A N/A S2 N/A Wantagh N/A 59 50 72 S6 N/A Hempstead N/A 61 48 63 S2 30.23F Matinecock Pt N/A 63 N/A N/A S6 N/A Farmingdale FAIR 58 47 66 S7 30.20 MacArthur/ISP FAIR 60 47 61 S7 30.21S Stony Brook N/A 61 45 55 S2 N/A Shirley FAIR 57 50 77 SE7 30.22F Mt Sinai Harb N/A N/A N/A N/A S7 N/A Westhampton FAIR 55 49 80 S9 30.25R East Hampton FAIR 54 47 76 S10 30.24S Southold N/A 55 48 76 S13 N/A Montauk N/A 55 47 74 S8 30.26S $$ NYZ052-065-067-230800- Hudson Valley CITY SKY/WX TMP DP RH WIND PRES REMARKS White Plains FAIR 58 49 72 CALM 30.18F Larchmont Harb N/A 61 N/A N/A SE8 N/A Croton On Huds N/A 61 N/A N/A MISG N/A Somers N/A 57 48 72 E1 N/A Brewster N/A 52 48 87 NW1 N/A Newburgh MOCLDY 61 46 59 CALM 30.18S Montgomery NOT AVBL Otisville N/A 55 52 88 N3 N/A Warwick N/A 61 45 55 SE1 N/A Suffern N/A 57 46 67 NW1 N/A Poughkeepsie CLOUDY 56 49 77 CALM 30.17R Albany CLOUDY 58 41 53 CALM 30.16F $$ NJZ001-105-106-008-010-013-015-019>022-104-230800- New Jersey CITY SKY/WX TMP DP RH WIND PRES REMARKS Newark/Liberty MOCLDY 63 45 51 SW9 30.17F Teterboro FAIR 63 45 51 S5 30.16F Caldwell MOCLDY 64 45 49 VRB5 30.16F Somerville FAIR 55 50 83 CALM 30.17F Linden FAIR 62 44 51 CALM 30.18F Perth Amboy N/A 61 N/A N/A SW6 N/A Sussex CLOUDY 56 54 93 CALM 30.17F Andover N/A 61 43 51 SW3 30.17F Trenton FAIR 59 48 67 SW6 30.19F Millville FAIR 58 46 64 CALM 30.22F Atlantic City FAIR 58 47 66 SW3 30.22F Wrightstown CLOUDY 56 47 71 SW7 30.18F Toms River FAIR 55 46 71 SW6 30.22F Belmar FAIR 58 45 62 S5 30.21F $$ PAZ047>061-062-071-230800- Eastern Pennsylvania CITY SKY/WX TMP DP RH WIND PRES REMARKS Philadelphia MOCLDY 62 48 60 S8 30.20F Allentown FAIR 65 45 48 SW14 30.17F Scranton RAIN 59 51 75 N7 30.19R $$ CTZ002-004>006-009-010-012-RIZ004-006-007-MAZ004-011-015-230800- Southern New England In CT CITY SKY/WX TMP DP RH WIND PRES REMARKS Bradley Intl CLOUDY 55 47 74 E3 30.24R Hartford CLOUDY 55 49 80 S3 30.23S Danbury FAIR 57 47 69 NE3 30.20F Wtrbury/Oxford NOT AVBL Norwalk Harbor N/A 55 N/A N/A NE7 N/A Bridgeport FAIR 58 51 78 CALM 30.20F Meriden MOCLDY 55 50 83 SE3 30.22S New Haven FAIR 58 53 84 SE6 30.21S Chester FAIR 54 50 87 SE6 30.23F Groton LGT RAIN 56 47 71 S9 30.25R Willimantic CLOUDY 52 46 80 S3 30.25R In RI CITY SKY/WX TMP DP RH WIND PRES REMARKS Providence CLOUDY 52 43 71 S7 30.26F Block Island CLOUDY 54 43 66 S14 30.26S Westerly CLOUDY 55 46 71 S8 30.27S In MA CITY SKY/WX TMP DP RH WIND PRES REMARKS Boston CLOUDY 55 43 63 S8 30.27R Worcester CLOUDY 49 42 77 SW10 30.25R Westfield CLOUDY 53 47 79 SE5 30.22S Provincetown FAIR 50 45 83 SW8 30.28S Nantucket FAIR 49 42 77 SW8 30.29S $$ ANZ330-335-338-340-345-350-353-355-230800- Coastal Marine Observations STATION/POSITION TIME SKY/WX TEMP WIND PRES VSBY WAVE AIR SEA DIR/SP/G HT/PER (UTC) (F) (DEG/KT/KT) (MB) (MI) (FT/S) NY Harb Entrance 0650 59 57 200/ 10/ 12 1022.6 1/ 4 20 S Fire Island 0650 58 56 180/ 10/ 10 1023.2 2/ 4 Great South Bay 0630 60 64 200/ 8/ 8 N/A 23 SSW Montauk P 0650 55 54 170/ 14/ 17 1024.6 3/ 4 15 E Barnegat Li 0630 59 N/A 2/ 3 Hudson Canyon 0650 56 54 160/ 12/ 14 1025.0 2/ 9 Kings Point 0642 62 59 200/ 7/ 8 1022.9 Execution Rocks NOT AVBL Western LI Sound NOT AVBL Central LI Sound NOT AVBL Robbins Reef 0642 63 190/ 6/ 11 1022.0 $$ >>>>>>>>>>>>>>>>>>>>>>>>>>>> KEY <<<<<<<<<<<<<<<<<<<<<<<<<<< > < > SKY/WX - Sky Condition/Present Weather < > TMP - Temperature in Fahrenheit < > DP - Dew Point in Fahrenheit < > RH - Relative Humidity in Percent < > WIND - Direction (from) and Speed in MPH < > PRES - Mean Sea Level Pressure (inches of Hg) < > WCI - Wind Chill Index < > VSB - Visibility in Miles < > HX - Heat Index < > TC - Temperature in Celsius < > VRB - Variable Wind Direction < > < >>>>>>>>>>>>>>>>>>>>>>>>>>>> KEY <<<<<<<<<<<<<<<<<<<<<<<<<<<

USA.gov is the U.S. government's official web portal to all federal, state and local government web resources and services.